Time,TemperatureF,DewpointF,PressureIn,WindDirection,WindDirectionDegrees,WindSpeedMPH,WindSpeedGustMPH,Humidity,HourlyPrecipIn,Conditions,Clouds,dailyrainin,SolarRadiationWatts/m^2,SoftwareType,DateUTC
2013-03-25 00:02:00,7.0,-3.0,-100.00,SW,220,3.0,5.0,62,0.00,,,0.00,0.000000,,2013-03-25 06:02:00,
2013-03-25 00:12:00,7.0,-3.0,-100.00,SW,220,3.0,5.0,62,0.00,,,0.00,0.000000,,2013-03-25 06:12:00,
2013-03-25 00:22:00,7.0,-3.0,-100.00,SW,220,3.0,5.0,62,0.00,,,0.00,0.000000,,2013-03-25 06:22:00,
2013-03-25 00:32:00,7.0,-3.0,-100.00,SW,220,3.0,5.0,62,0.00,,,0.00,0.000000,,2013-03-25 06:32:00,
2013-03-25 00:52:00,6.0,-7.0,-100.00,WSW,237,2.0,5.0,55,0.00,,,0.00,0.000000,,2013-03-25 06:52:00,
2013-03-25 01:02:00,6.0,-7.0,-100.00,WSW,237,2.0,5.0,55,0.00,,,0.00,0.000000,,2013-03-25 07:02:00,
2013-03-25 01:12:00,6.0,-7.0,-100.00,WSW,237,2.0,5.0,55,0.00,,,0.00,0.000000,,2013-03-25 07:12:00,
2013-03-25 01:22:00,6.0,-7.0,-100.00,WSW,237,2.0,5.0,55,0.00,,,0.00,0.000000,,2013-03-25 07:22:00,
2013-03-25 01:32:00,6.0,-7.0,-100.00,WSW,237,2.0,5.0,55,0.00,,,0.00,0.000000,,2013-03-25 07:32:00,
2013-03-25 01:53:00,4.0,-7.0,-100.00,WSW,237,2.0,5.0,59,0.00,,,0.00,0.000000,,2013-03-25 07:53:00,
2013-03-25 02:02:00,4.0,-7.0,-100.00,WSW,237,2.0,5.0,59,0.00,,,0.00,0.000000,,2013-03-25 08:02:00,
2013-03-25 02:12:00,4.0,-7.0,-100.00,WSW,237,2.0,5.0,59,0.00,,,0.00,0.000000,,2013-03-25 08:12:00,
2013-03-25 02:22:00,4.0,-7.0,-100.00,WSW,237,2.0,5.0,59,0.00,,,0.00,0.000000,,2013-03-25 08:22:00,
2013-03-25 02:32:00,4.0,-7.0,-100.00,WSW,237,2.0,5.0,59,0.00,,,0.00,0.000000,,2013-03-25 08:32:00,
2013-03-25 02:52:00,4.0,-7.0,-100.00,WNW,299,3.0,7.0,58,0.00,,,0.00,0.000000,,2013-03-25 08:52:00,
2013-03-25 03:02:00,4.0,-7.0,-100.00,WNW,299,3.0,7.0,58,0.00,,,0.00,0.000000,,2013-03-25 09:02:00,
2013-03-25 03:12:00,4.0,-7.0,-100.00,WNW,299,3.0,7.0,58,0.00,,,0.00,0.000000,,2013-03-25 09:12:00,
2013-03-25 03:22:00,4.0,-7.0,-100.00,WNW,299,3.0,7.0,58,0.00,,,0.00,0.000000,,2013-03-25 09:22:00,
2013-03-25 03:33:00,4.0,-7.0,-100.00,WNW,299,3.0,7.0,58,0.00,,,0.00,0.000000,,2013-03-25 09:33:00,
2013-03-25 03:53:00,4.0,-9.0,-100.00,SW,229,3.0,6.0,53,0.00,,,0.00,0.000000,,2013-03-25 09:53:00,
2013-03-25 04:03:00,4.0,-9.0,-100.00,SW,229,3.0,6.0,53,0.00,,,0.00,0.000000,,2013-03-25 10:03:00,
2013-03-25 04:12:00,4.0,-9.0,-100.00,SW,229,3.0,6.0,53,0.00,,,0.00,0.000000,,2013-03-25 10:12:00,
2013-03-25 04:22:00,4.0,-9.0,-100.00,SW,229,3.0,6.0,53,0.00,,,0.00,0.000000,,2013-03-25 10:22:00,
2013-03-25 04:32:00,4.0,-9.0,-100.00,SW,229,3.0,6.0,53,0.00,,,0.00,0.000000,,2013-03-25 10:32:00,
2013-03-25 04:54:00,3.0,-11.0,-100.00,WSW,246,4.0,7.0,50,0.00,,,0.00,0.000000,,2013-03-25 10:54:00,
2013-03-25 05:03:00,3.0,-11.0,-100.00,WSW,246,4.0,7.0,50,0.00,,,0.00,0.000000,,2013-03-25 11:03:00,
2013-03-25 05:12:00,3.0,-11.0,-100.00,WSW,246,4.0,7.0,50,0.00,,,0.00,0.000000,,2013-03-25 11:12:00,
2013-03-25 05:23:00,3.0,-11.0,-100.00,WSW,246,4.0,7.0,50,0.00,,,0.00,0.000000,,2013-03-25 11:23:00,
2013-03-25 05:32:00,3.0,-11.0,-100.00,WSW,246,4.0,7.0,50,0.00,,,0.00,0.000000,,2013-03-25 11:32:00,
2013-03-25 05:53:00,2.0,-12.0,-100.00,WSW,251,2.0,7.0,50,0.00,,,0.00,0.000000,,2013-03-25 11:53:00,
2013-03-25 06:02:00,2.0,-12.0,-100.00,WSW,251,2.0,7.0,50,0.00,,,0.00,0.000000,,2013-03-25 12:02:00,
2013-03-25 06:13:00,2.0,-12.0,-100.00,WSW,251,2.0,7.0,50,0.00,,,0.00,0.000000,,2013-03-25 12:13:00,
2013-03-25 06:23:00,2.0,-12.0,-100.00,WSW,251,2.0,7.0,50,0.00,,,0.00,0.000000,,2013-03-25 12:23:00,
2013-03-25 06:32:00,2.0,-12.0,-100.00,WSW,251,2.0,7.0,50,0.00,,,0.00,0.000000,,2013-03-25 12:32:00,
2013-03-25 06:53:00,3.0,-13.0,-100.00,WSW,250,4.0,8.0,47,0.00,,,0.00,0.000000,,2013-03-25 12:53:00,
2013-03-25 07:02:00,3.0,-13.0,-100.00,WSW,250,4.0,8.0,47,0.00,,,0.00,0.000000,,2013-03-25 13:02:00,
2013-03-25 07:13:00,3.0,-13.0,-100.00,WSW,250,4.0,8.0,47,0.00,,,0.00,0.000000,,2013-03-25 13:13:00,
2013-03-25 07:22:00,3.0,-13.0,-100.00,WSW,250,4.0,8.0,47,0.00,,,0.00,0.000000,,2013-03-25 13:22:00,
2013-03-25 07:32:00,3.0,-13.0,-100.00,WSW,250,4.0,8.0,47,0.00,,,0.00,0.000000,,2013-03-25 13:32:00,
2013-03-25 07:52:00,3.0,-12.0,-100.00,WNW,287,5.0,9.0,48,0.00,,,0.00,7.000000,,2013-03-25 13:52:00,
2013-03-25 08:03:00,3.0,-12.0,-100.00,WNW,287,5.0,9.0,48,0.00,,,0.00,7.000000,,2013-03-25 14:03:00,
2013-03-25 08:12:00,3.0,-12.0,-100.00,WNW,287,5.0,9.0,48,0.00,,,0.00,7.000000,,2013-03-25 14:12:00,
2013-03-25 08:22:00,3.0,-12.0,-100.00,WNW,287,5.0,9.0,48,0.00,,,0.00,7.000000,,2013-03-25 14:22:00,
2013-03-25 08:32:00,3.0,-12.0,-100.00,WNW,287,5.0,9.0,48,0.00,,,0.00,7.000000,,2013-03-25 14:32:00,
2013-03-25 08:53:00,5.0,-10.0,-100.00,WNW,283,4.0,8.0,48,0.00,,,0.00,36.000000,,2013-03-25 14:53:00,
2013-03-25 09:02:00,5.0,-10.0,-100.00,WNW,283,4.0,8.0,48,0.00,,,0.00,36.000000,,2013-03-25 15:02:00,
2013-03-25 09:13:00,5.0,-10.0,-100.00,WNW,283,4.0,8.0,48,0.00,,,0.00,36.000000,,2013-03-25 15:13:00,
2013-03-25 09:23:00,5.0,-10.0,-100.00,WNW,283,4.0,8.0,48,0.00,,,0.00,36.000000,,2013-03-25 15:23:00,
2013-03-25 09:32:00,5.0,-10.0,-100.00,WNW,283,4.0,8.0,48,0.00,,,0.00,36.000000,,2013-03-25 15:32:00,
2013-03-25 09:53:00,11.0,-9.0,-100.00,WNW,290,6.0,10.0,40,0.00,,,0.00,350.000000,,2013-03-25 15:53:00,
2013-03-25 10:03:00,11.0,-9.0,-100.00,WNW,290,6.0,10.0,40,0.00,,,0.00,350.000000,,2013-03-25 16:03:00,
2013-03-25 10:12:00,11.0,-9.0,-100.00,WNW,290,6.0,10.0,40,0.00,,,0.00,350.000000,,2013-03-25 16:12:00,
2013-03-25 10:23:00,11.0,-9.0,-100.00,WNW,290,6.0,10.0,40,0.00,,,0.00,350.000000,,2013-03-25 16:23:00,
2013-03-25 10:33:00,11.0,-9.0,-100.00,WNW,290,6.0,10.0,40,0.00,,,0.00,350.000000,,2013-03-25 16:33:00,
2013-03-25 10:53:00,15.0,-8.0,-100.00,NW,315,6.0,10.0,35,0.00,,,0.00,606.000000,,2013-03-25 16:53:00,
2013-03-25 11:02:00,15.0,-8.0,-100.00,NW,315,6.0,10.0,35,0.00,,,0.00,606.000000,,2013-03-25 17:02:00,
2013-03-25 11:12:00,15.0,-8.0,-100.00,NW,315,6.0,10.0,35,0.00,,,0.00,606.000000,,2013-03-25 17:12:00,
2013-03-25 11:23:00,15.0,-8.0,-100.00,NW,315,6.0,10.0,35,0.00,,,0.00,606.000000,,2013-03-25 17:23:00,
2013-03-25 11:33:00,15.0,-8.0,-100.00,NW,315,6.0,10.0,35,0.00,,,0.00,606.000000,,2013-03-25 17:33:00,
2013-03-25 11:53:00,21.0,-7.0,-100.00,NNW,340,4.0,10.0,28,0.00,,,0.00,788.000000,,2013-03-25 17:53:00,
2013-03-25 12:03:00,21.0,-7.0,-100.00,NNW,340,4.0,10.0,28,0.00,,,0.00,788.000000,,2013-03-25 18:03:00,
2013-03-25 12:12:00,21.0,-7.0,-100.00,NNW,340,4.0,10.0,28,0.00,,,0.00,788.000000,,2013-03-25 18:12:00,
2013-03-25 12:23:00,21.0,-7.0,-100.00,NNW,340,4.0,10.0,28,0.00,,,0.00,788.000000,,2013-03-25 18:23:00,
2013-03-25 12:33:00,21.0,-7.0,-100.00,NNW,340,4.0,10.0,28,0.00,,,0.00,788.000000,,2013-03-25 18:33:00,
2013-03-25 12:53:00,25.0,-4.0,-100.00,NNW,329,5.0,9.0,27,0.10,,,0.10,898.000000,,2013-03-25 18:53:00,
2013-03-25 13:03:00,25.0,-4.0,-100.00,NNW,329,5.0,9.0,27,0.10,,,0.10,898.000000,,2013-03-25 19:03:00,
2013-03-25 13:13:00,25.0,-4.0,-100.00,NNW,329,5.0,9.0,27,0.10,,,0.10,898.000000,,2013-03-25 19:13:00,
2013-03-25 13:23:00,25.0,-4.0,-100.00,NNW,329,5.0,9.0,27,0.10,,,0.10,898.000000,,2013-03-25 19:23:00,
2013-03-25 13:33:00,25.0,-4.0,-100.00,NNW,329,5.0,9.0,27,0.10,,,0.10,898.000000,,2013-03-25 19:33:00,
2013-03-25 13:53:00,30.0,0.0,-100.00,NNW,348,5.0,12.0,27,0.03,,,0.13,940.000000,,2013-03-25 19:53:00,
2013-03-25 14:02:00,30.0,0.0,-100.00,NNW,348,5.0,12.0,27,0.03,,,0.13,940.000000,,2013-03-25 20:02:00,
2013-03-25 14:12:00,30.0,0.0,-100.00,NNW,348,5.0,12.0,27,0.03,,,0.13,940.000000,,2013-03-25 20:12:00,
2013-03-25 14:22:00,30.0,0.0,-100.00,NNW,348,5.0,12.0,27,0.03,,,0.13,940.000000,,2013-03-25 20:22:00,
2013-03-25 14:32:00,30.0,0.0,-100.00,NNW,348,5.0,12.0,27,0.03,,,0.13,940.000000,,2013-03-25 20:32:00,
2013-03-25 14:52:00,33.0,2.0,-100.00,NNW,344,5.0,11.0,26,0.00,,,0.13,914.000000,,2013-03-25 20:52:00,
2013-03-25 15:02:00,33.0,2.0,-100.00,NNW,344,5.0,11.0,26,0.00,,,0.13,914.000000,,2013-03-25 21:02:00,
2013-03-25 15:12:00,33.0,2.0,-100.00,NNW,344,5.0,11.0,26,0.00,,,0.13,914.000000,,2013-03-25 21:12:00,
2013-03-25 15:22:00,33.0,2.0,-100.00,NNW,344,5.0,11.0,26,0.00,,,0.13,914.000000,,2013-03-25 21:22:00,
2013-03-25 15:33:00,33.0,2.0,-100.00,NNW,344,5.0,11.0,26,0.00,,,0.13,914.000000,,2013-03-25 21:33:00,
2013-03-25 15:52:00,33.0,1.0,-100.00,NNE,29,4.0,11.0,25,0.00,,,0.13,825.000000,,2013-03-25 21:52:00,
2013-03-25 16:03:00,33.0,1.0,-100.00,NNE,29,4.0,11.0,25,0.00,,,0.13,825.000000,,2013-03-25 22:03:00,
2013-03-25 16:12:00,33.0,1.0,-100.00,NNE,29,4.0,11.0,25,0.00,,,0.13,825.000000,,2013-03-25 22:12:00,
2013-03-25 16:23:00,33.0,1.0,-100.00,NNE,29,4.0,11.0,25,0.00,,,0.13,825.000000,,2013-03-25 22:23:00,
2013-03-25 16:33:00,33.0,1.0,-100.00,NNE,29,4.0,11.0,25,0.00,,,0.13,825.000000,,2013-03-25 22:33:00,
2013-03-25 16:52:00,36.0,3.0,-100.00,SW,225,3.0,12.0,24,0.00,,,0.13,666.000000,,2013-03-25 22:52:00,
2013-03-25 17:03:00,36.0,3.0,-100.00,SW,225,3.0,12.0,24,0.00,,,0.13,666.000000,,2013-03-25 23:03:00,
2013-03-25 17:12:00,36.0,3.0,-100.00,SW,225,3.0,12.0,24,0.00,,,0.13,666.000000,,2013-03-25 23:12:00,
2013-03-25 17:23:00,36.0,3.0,-100.00,SW,225,3.0,12.0,24,0.00,,,0.13,666.000000,,2013-03-25 23:23:00,
2013-03-25 17:32:00,36.0,3.0,-100.00,SW,225,3.0,12.0,24,0.00,,,0.13,666.000000,,2013-03-25 23:32:00,
2013-03-25 17:53:00,32.0,-2.0,-100.00,West,281,8.0,16.0,22,0.00,,,0.13,474.000000,,2013-03-25 23:53:00,
2013-03-25 18:02:00,32.0,-2.0,-100.00,West,281,8.0,16.0,22,0.00,,,0.13,474.000000,,2013-03-26 00:02:00,
2013-03-25 18:12:00,32.0,-2.0,-100.00,West,281,8.0,16.0,22,0.00,,,0.13,474.000000,,2013-03-26 00:12:00,
2013-03-25 18:22:00,32.0,-2.0,-100.00,West,281,8.0,16.0,22,0.00,,,0.13,474.000000,,2013-03-26 00:22:00,
2013-03-25 18:32:00,32.0,-2.0,-100.00,West,281,8.0,16.0,22,0.00,,,0.13,474.000000,,2013-03-26 00:32:00,
2013-03-25 18:52:00,29.0,-3.0,-100.00,West,270,9.0,17.0,24,0.00,,,0.13,248.000000,,2013-03-26 00:52:00,
2013-03-25 19:02:00,29.0,-3.0,-100.00,West,270,9.0,17.0,24,0.00,,,0.13,248.000000,,2013-03-26 01:02:00,
2013-03-25 19:12:00,29.0,-3.0,-100.00,West,270,9.0,17.0,24,0.00,,,0.13,248.000000,,2013-03-26 01:12:00,
2013-03-25 19:22:00,29.0,-3.0,-100.00,West,270,9.0,17.0,24,0.00,,,0.13,248.000000,,2013-03-26 01:22:00,
2013-03-25 19:32:00,29.0,-3.0,-100.00,West,270,9.0,17.0,24,0.00,,,0.13,248.000000,,2013-03-26 01:32:00,
2013-03-25 19:52:00,23.0,-7.0,-100.00,WSW,242,5.0,15.0,26,0.00,,,0.13,24.000000,,2013-03-26 01:52:00,
2013-03-25 20:02:00,23.0,-7.0,-100.00,WSW,242,5.0,15.0,26,0.00,,,0.13,24.000000,,2013-03-26 02:02:00,
2013-03-25 20:12:00,23.0,-7.0,-100.00,WSW,242,5.0,15.0,26,0.00,,,0.13,24.000000,,2013-03-26 02:12:00,
2013-03-25 20:22:00,23.0,-7.0,-100.00,WSW,242,5.0,15.0,26,0.00,,,0.13,24.000000,,2013-03-26 02:22:00,
2013-03-25 20:32:00,23.0,-7.0,-100.00,WSW,242,5.0,15.0,26,0.00,,,0.13,24.000000,,2013-03-26 02:32:00,
2013-03-25 20:52:00,19.0,-8.0,-100.00,West,272,3.0,16.0,29,0.00,,,0.13,0.000000,,2013-03-26 02:52:00,
2013-03-25 21:02:00,19.0,-8.0,-100.00,West,272,3.0,16.0,29,0.00,,,0.13,0.000000,,2013-03-26 03:02:00,
2013-03-25 21:12:00,19.0,-8.0,-100.00,West,272,3.0,16.0,29,0.00,,,0.13,0.000000,,2013-03-26 03:12:00,
2013-03-25 21:22:00,19.0,-8.0,-100.00,West,272,3.0,16.0,29,0.00,,,0.13,0.000000,,2013-03-26 03:22:00,
2013-03-25 21:33:00,19.0,-8.0,-100.00,West,272,3.0,16.0,29,0.00,,,0.13,0.000000,,2013-03-26 03:33:00,
2013-03-25 21:53:00,18.0,-6.0,-100.00,South,182,3.0,11.0,34,0.00,,,-99.99,0.000000,,2013-03-26 03:53:00,
2013-03-25 22:03:00,18.0,-6.0,-100.00,South,182,3.0,11.0,34,0.00,,,-99.99,0.000000,,2013-03-26 04:03:00,
2013-03-25 22:12:00,18.0,-6.0,-100.00,South,182,3.0,11.0,34,0.00,,,-99.99,0.000000,,2013-03-26 04:12:00,
2013-03-25 22:23:00,18.0,-6.0,-100.00,South,182,3.0,11.0,34,0.00,,,-99.99,0.000000,,2013-03-26 04:23:00,
2013-03-25 22:32:00,18.0,-6.0,-100.00,South,182,3.0,11.0,34,0.00,,,-99.99,0.000000,,2013-03-26 04:32:00,
2013-03-25 22:53:00,17.0,-4.0,-100.00,ESE,121,4.0,10.0,38,0.00,,,0.13,0.000000,,2013-03-26 04:53:00,
2013-03-25 23:02:00,17.0,-4.0,-100.00,ESE,121,4.0,10.0,38,0.00,,,0.13,0.000000,,2013-03-26 05:02:00,
2013-03-25 23:12:00,17.0,-4.0,-100.00,ESE,121,4.0,10.0,38,0.00,,,0.13,0.000000,,2013-03-26 05:12:00,
2013-03-25 23:22:00,17.0,-4.0,-100.00,ESE,121,4.0,10.0,38,0.00,,,0.13,0.000000,,2013-03-26 05:22:00,
2013-03-25 23:32:00,17.0,-4.0,-100.00,ESE,121,4.0,10.0,38,0.00,,,0.13,0.000000,,2013-03-26 05:32:00,
2013-03-25 23:52:00,20.0,-6.0,-100.00,SW,234,5.0,9.0,31,0.00,,,0.13,0.000000,,2013-03-26 05:52:00,